Flag for U.S.A. Weather past 2 weeks in Berkeley, California, U.S.A.

Now
64 °F

Broken clouds.


Feels Like: 64 °F
Forecast: 49 / 63 °F
Wind: 16 mph from West

Location: Metro Oakland International Airport

Current Time: Apr 1, 2015 at 3:12:07 PM

Latest Report: Apr 1, 2015 at 1:53 PM


Visibility: 10 mi

Pressure: 30.13 "Hg

Humidity: 43%

Dew point: 41 °F

Location of BerkeleyLocation

Historic Weather in Berkeley — Graph

°F

Berkeley temperature yesterday

Maximum temperature yesterday: 68 °F (at 1:53 PM)
Minimum temperature yesterday: 55 °F (at 2:53 AM)
Average temperature yesterday: 60 °F

Past Weeks' High & Low Weather Summary

 TemperatureHumidityPressure
High78 °F (Mar 26, 3:53 PM)96% (Mar 27, 7:53 AM)30.32 "Hg (Mar 27, 7:53 AM)
Low48 °F (Mar 18, 3:53 AM)31% (Apr 1, 11:53 AM)29.99 "Hg (Mar 19, 5:53 PM)
Average59 °F72%30.13 "Hg
* Reported Mar 17 1:53 PM — Apr 1 1:53 PM, Berkeley, Weather by CustomWeather, © 2015

Note: Actual official high and low records may vary slightly from our data, if they occured in-between our weather recording intervals... More about our weather records

Advertising

Berkeley weather history for previous 24 hours

 ConditionsComfort  
Time TempWeatherWind HumidityBarometerVisibility
1:53 PM
Wed, Apr 1
64 °FBroken clouds.16 mph43%30.13 "Hg10 mi
12:53 PM62 °FBroken clouds.7 mph35%30.15 "Hg10 mi
11:53 AM61 °FBroken clouds.9 mph31%30.17 "Hg10 mi
10:53 AM60 °FScattered clouds.10 mph32%30.18 "Hg10 mi
9:53 AM58 °FPassing clouds.10 mph38%30.19 "Hg10 mi
8:53 AM56 °FPassing clouds.6 mph42%30.19 "Hg10 mi
7:53 AM52 °FPassing clouds.No wind50%30.19 "Hg10 mi
6:53 AM50 °FPassing clouds.No wind52%30.18 "Hg10 mi
5:53 AM48 °FClear.5 mph61%30.16 "Hg10 mi
4:53 AM50 °FClear.5 mph57%30.17 "Hg10 mi
3:53 AM52 °FClear.5 mph53%30.17 "Hg10 mi
2:53 AM53 °FClear.6 mph56%30.18 "Hg10 mi
1:53 AM55 °FClear.9 mph49%30.19 "Hg10 mi
12:53 AM56 °FClear.9 mph53%30.19 "Hg10 mi
11:53 PM
Tue, Mar 31
57 °FClear.9 mph53%30.19 "Hg10 mi
10:53 PM57 °FClear.3 mph58%30.19 "Hg10 mi
9:53 PM57 °FClear.13 mph58%30.16 "Hg10 mi
8:53 PM58 °FPassing clouds.14 mph51%30.15 "Hg10 mi
7:53 PM59 °FPassing clouds.14 mph56%30.14 "Hg10 mi
6:53 PM61 °FPassing clouds.20 mph52%30.14 "Hg10 mi
5:53 PM65 °FPassing clouds.24 mph47%30.13 "Hg10 mi
4:53 PM66 °FPassing clouds.21 mph43%30.13 "Hg10 mi
3:53 PM66 °FPassing clouds.23 mph47%30.14 "Hg10 mi
Weather by CustomWeather, © 2015

See weather overviewHow to use our weather pages